FW3646 Weather Reports


Display with metric or nautical units.
time (UTC)temp
F
wind
direction
speed
MPH
gust
MPH
rain 1hr
in
rain 24hr
in
rain mn
in
humidity
%
barometer
mb
20260505124835 84 285 2.0 8.0 0.00 0.00 0.00 34 1006.5
20260505124600 83 186 2.0 8.0 0.00 0.00 0.00 33 1006.5
20260505123837 82 149 1.0 4.0 0.00 0.00 0.00 35 1006.5
20260505123333 82 71 2.0 7.0 0.00 0.00 0.00 35 1006.7
20260505123059 82 348 2.0 7.0 0.00 0.00 0.00 34 1006.7
20260505122556 83 23 2.0 6.0 0.00 0.00 0.00 34 1006.8
20260505121816 83 347 2.0 5.0 0.00 0.00 0.00 36 1007.0
20260505121315 83 73 2.0 5.0 0.00 0.00 0.00 35 1007.0
20260505120809 83 239 2.0 8.0 0.00 0.00 0.00 37 1007.1
20260505120310 83 21 2.0 8.0 0.00 0.00 0.00 36 1007.3
20260505115809 83 10 1.0 5.0 0.00 0.00 0.00 37 1007.3
20260505115308 82 297 1.0 5.0 0.00 0.00 0.00 38 1007.4
20260505115042 82 280 2.0 4.0 0.00 0.00 0.00 40 1007.4
20260505114535 82 359 2.0 8.0 0.00 0.00 0.00 39 1007.5
20260505113805 82 308 1.0 8.0 0.00 0.00 0.00 38 1007.6
20260505113306 82 304 1.0 4.0 0.00 0.00 0.00 40 1007.6
20260505112808 81 4 1.0 5.0 0.00 0.00 0.00 39 1007.8
20260505112307 81 4 1.0 5.0 0.00 0.00 0.00 38 1007.7
20260505111803 81 275 1.0 4.0 0.00 0.00 0.00 40 1007.9
20260505111528 81 291 2.0 6.0 0.00 0.00 0.00 39 1007.9
20260505110745 81 328 3.0 6.0 0.00 0.00 0.00 40 1007.9
20260505110243 81 324 2.0 5.0 0.00 0.00 0.00 41 1008.0
20260505101738 78 270 1.0 3.0 0.00 0.00 0.00 47 1008.5
20260505101235 78 304 1.0 3.0 0.00 0.00 0.00 48 1008.5
20260505100715 77 310 1.0 3.0 0.00 0.00 0.00 48 1008.6
20260505100208 77 293 1.0 5.0 0.00 0.00 0.00 48 1008.6
20260505095708 77 4 2.0 5.0 0.00 0.00 0.00 48 1008.7
20260505095435 76 27 2.0 5.0 0.00 0.00 0.00 48 1008.7
20260505094944 76 315 2.0 5.0 0.00 0.00 0.00 49 1008.8
20260505094204 76 354 2.0 4.0 0.00 0.00 0.00 49 1008.8
20260505093703 77 293 2.0 4.0 0.00 0.00 0.00 48 1008.9
20260505093201 76 122 2.0 4.0 0.00 0.00 0.00 49 1008.9
20260505092701 78 47 2.0 4.0 0.00 0.00 0.00 47 1009.0
20260505092423 78 22 2.0 5.0 0.00 0.00 0.00 47 1009.1
20260505091653 78 14 1.0 5.0 0.00 0.00 0.00 48 1009.1
20260505091153 78 45 1.0 5.0 0.00 0.00 0.00 49 1009.2
20260505090653 77 303 1.0 5.0 0.00 0.00 0.00 49 1009.3
20260505090153 76 232 1.0 4.0 0.00 0.00 0.00 53 1009.4
20260505085653 75 244 1.0 4.0 0.00 0.00 0.00 54 1009.4
20260505085151 75 61 2.0 5.0 0.00 0.00 0.00 52 1009.5
20260505084649 75 18 1.0 5.0 0.00 0.00 0.00 53 1009.5
20260505084147 74 14 0.0 4.0 0.00 0.00 0.00 54 1009.6
20260505083647 74 140 1.0 4.0 0.00 0.00 0.00 56 1009.6
20260505083147 73 161 1.0 4.0 0.00 0.00 0.00 57 1009.6
20260505082643 72 162 1.0 4.0 0.00 0.00 0.00 58 1009.5
20260505082143 71 280 2.0 6.0 0.00 0.00 0.00 58 1009.6
20260505081914 71 37 2.0 6.0 0.00 0.00 0.00 58 1009.6
20260505081409 71 310 1.0 4.0 0.00 0.00 0.00 57 1009.6
20260505080641 71 305 1.0 4.0 0.00 0.00 0.00 58 1009.7
20260505080416 71 344 1.0 4.0 0.00 0.00 0.00 58 1009.8
20260505075637 71 189 1.0 4.0 0.00 0.00 0.00 59 1009.8
20260505075404 69 222 1.0 3.0 0.00 0.00 0.00 61 1009.8
20260505074635 69 120 1.0 3.0 0.00 0.00 0.00 61 1009.8
20260505074138 69 172 1.0 5.0 0.00 0.00 0.00 61 1009.9
20260505073637 69 197 1.0 5.0 0.00 0.00 0.00 62 1009.9
20260505073135 68 308 0.0 3.0 0.00 0.00 0.00 63 1009.9
20260505072636 67 292 1.0 3.0 0.00 0.00 0.00 65 1010.0
20260505072135 67 189 1.0 4.0 0.00 0.00 0.00 66 1010.0
20260505071636 66 188 1.0 4.0 0.00 0.00 0.00 67 1010.0
20260505071404 65 121 0.0 1.0 0.00 0.00 0.00 68 1010.0
20260505070637 64 114 0.0 1.0 0.00 0.00 0.00 70 1010.0
20260505070409 64 79 0.0 2.0 0.00 0.00 0.00 70 1009.6
20260505065637 63 10 0.0 2.0 0.00 0.00 0.00 72 1010.1
20260505065135 62 28 0.0 2.0 0.00 0.00 0.00 73 1010.0
20260505064636 62 36 0.0 2.0 0.00 0.00 0.00 74 1010.1
20260505064135 61 40 0.0 2.0 0.00 0.00 0.00 76 1010.1
20260505063638 60 135 0.0 1.0 0.00 0.00 0.00 76 1010.1
20260505063135 60 143 0.0 2.0 0.00 0.00 0.00 77 1010.1
20260505062638 59 195 0.0 2.0 0.00 0.00 0.00 78 1010.1
20260505062114 59 198 0.0 2.0 0.00 0.00 0.00 79 1010.2
20260505061613 58 311 0.0 2.0 0.00 0.00 0.00 80 1010.2
20260505061113 58 309 0.0 2.0 0.00 0.00 0.00 81 1010.1
20260505060608 57 171 0.0 1.0 0.00 0.00 0.00 82 1010.2
20260505060355 55 172 0.0 1.0 0.00 0.00 0.00 83 1010.3
20260505060116 56 171 0.0 0.0 0.00 0.00 0.00 83 1010.2
20260505055055 55 172 0.0 1.0 0.00 0.00 0.00 83 1010.3
20260505054554 55 171 0.0 0.0 0.00 0.00 0.00 83 1010.5
20260505054039 54 171 0.0 0.0 0.00 0.00 0.00 83 1010.3
20260505053808 54 171 0.0 0.0 0.00 0.00 0.00 83 1010.3
20260505053028 54 171 0.0 0.0 0.00 0.00 0.00 83 1010.3
20260505052752 54 171 0.0 0.0 0.00 0.00 0.00 83 1010.3
20260505052015 54 171 0.0 0.0 0.00 0.00 0.00 83 1010.3
20260505051746 53 171 0.0 0.0 0.00 0.00 0.00 82 1010.2
20260505051013 53 171 0.0 0.0 0.00 0.00 0.00 82 1010.3
20260505050745 53 171 0.0 0.0 0.00 0.00 0.00 81 1010.3
20260505041435 54 171 0.0 1.0 0.00 0.00 0.00 77 1010.5
20260505040936 54 171 0.0 0.0 0.00 0.00 0.00 77 1010.3
20260505040435 55 171 0.0 0.0 0.00 0.00 0.00 77 1010.3
20260505035933 55 171 0.0 0.0 0.00 0.00 0.00 76 1010.3
20260505035425 55 171 0.0 0.0 0.00 0.00 0.00 76 1010.3
20260505034922 55 171 0.0 0.0 0.00 0.00 0.00 75 1010.5
20260505034415 55 171 0.0 0.0 0.00 0.00 0.00 75 1010.5
20260505034143 56 171 0.0 0.0 0.00 0.00 0.00 75 1010.6
20260505033657 56 171 0.0 0.0 0.00 0.00 0.00 74 1010.6
20260505032911 56 171 0.0 0.0 0.00 0.00 0.00 74 1010.6
20260505032339 56 171 0.0 0.0 0.00 0.00 0.00 74 1010.6
20260505031835 57 171 0.0 0.0 0.00 0.00 0.00 74 1010.6
20260505031610 57 171 0.0 0.0 0.00 0.00 0.00 74 1010.7
20260505030838 57 171 0.0 0.0 0.00 0.00 0.00 74 1010.7
20260505030609 57 171 0.0 0.0 0.00 0.00 0.00 74 1010.7
20260505025835 57 171 0.0 0.0 0.00 0.00 0.00 74 1010.7
20260505025610 58 171 0.0 0.0 0.00 0.00 0.00 74 1010.7
20260505024836 58 171 0.0 0.0 0.00 0.00 0.00 74 1010.7
20260505024337 58 171 0.0 0.0 0.00 0.00 0.00 74 1010.8
20260505024059 58 171 0.0 0.0 0.00 0.00 0.00 74 1010.8
20260505023335 58 171 0.0 0.0 0.00 0.00 0.00 75 1010.8
20260505022836 58 171 0.0 0.0 0.00 0.00 0.00 74 1010.8
20260505022336 58 171 0.0 1.0 0.00 0.00 0.00 75 1010.7
20260505021836 58 171 0.0 1.0 0.00 0.00 0.00 75 1010.7
20260505021327 58 171 0.0 1.0 0.00 0.00 0.00 74 1010.7
20260505020826 58 171 0.0 2.0 0.00 0.00 0.00 74 1010.7
20260505020317 59 171 0.0 2.0 0.00 0.00 0.00 74 1010.7
20260505015815 59 171 0.0 2.0 0.00 0.00 0.00 73 1010.8
20260505015307 59 171 0.0 3.0 0.00 0.00 0.00 73 1010.7
20260505014809 59 171 0.0 3.0 0.00 0.00 0.00 72 1010.8
20260505014309 60 171 0.0 1.0 0.00 0.00 0.00 72 1010.8
20260505013810 60 171 0.0 1.0 0.00 0.00 0.00 71 1010.7
20260505013309 60 171 0.0 3.0 0.00 0.00 0.00 71 1010.8
20260505012742 60 171 0.0 3.0 0.00 0.00 0.00 71 1010.8
20260505012239 60 171 1.0 4.0 0.00 0.00 0.00 71 1010.8
20260505011738 60 203 1.0 6.0 0.00 0.00 0.00 71 1010.8
20260505011236 60 199 0.0 6.0 0.00 0.00 0.00 72 1010.9
20260505010735 60 173 0.0 2.0 0.00 0.00 0.00 72 1011.0
20260505010225 60 169 0.0 2.0 0.00 0.00 0.00 72 1011.0
20260505005724 60 195 0.0 2.0 0.00 0.00 0.00 72 1011.1
20260505005455 60 195 0.0 2.0 0.00 0.00 0.00 72 1011.1
20260505004710 60 195 0.0 2.0 0.00 0.00 0.00 72 1011.1
20260505004210 61 195 0.0 2.0 0.00 0.00 0.00 72 1011.2
20260505003943 61 204 0.0 2.0 0.00 0.00 0.00 72 1011.2
20260505003206 61 204 0.0 3.0 0.00 0.00 0.00 72 1011.3
20260505002707 61 204 0.0 3.0 0.00 0.00 0.00 71 1011.4
20260505002206 61 206 0.0 2.0 0.00 0.00 0.00 70 1011.4
20260505001706 61 242 0.0 1.0 0.00 0.00 0.00 69 1011.6
20260505001444 61 316 0.0 0.0 0.00 0.00 0.00 68 1011.6
20260505000710 61 316 0.0 0.0 0.00 0.00 0.00 68 1011.6
20260505000211 61 316 0.0 0.0 0.00 0.00 0.00 68 1011.6
20260504235708 61 316 0.0 0.0 0.00 0.00 0.00 68 1011.5
20260504235440 61 316 0.0 0.0 0.00 0.00 0.00 68 1011.6
20260504234944 61 316 0.0 0.0 0.00 0.00 0.00 68 1011.5
20260504234211 61 316 1.0 4.0 0.00 0.00 0.00 68 1011.5
20260504233711 61 315 1.0 4.0 0.00 0.00 0.00 68 1011.1
20260504233158 61 204 1.0 3.0 0.00 0.00 0.00 68 1011.8
20260504232656 62 16 1.0 5.0 0.00 0.00 0.00 67 1011.4
20260504232427 62 14 1.0 5.0 0.00 0.00 0.00 67 1011.9
20260504231650 62 150 0.0 0.0 0.00 0.00 0.00 65 1011.4
20260504231148 62 150 0.0 0.0 0.00 0.00 0.00 66 1011.4
20260504230648 62 150 0.0 0.0 0.00 0.00 0.00 66 1011.4
20260504230137 62 150 0.0 0.0 0.00 0.00 0.00 66 1010.9
20260504225906 63 150 0.0 0.0 0.00 0.00 0.00 66 1011.4
20260504225136 63 150 0.0 0.0 0.00 0.00 0.00 66 1011.5
20260504224635 63 150 0.0 0.0 0.00 0.00 0.00 65 1011.4
20260504224134 63 150 0.0 1.0 0.00 0.00 0.00 65 1011.5
20260504223636 63 150 0.0 1.0 0.00 0.00 0.00 65 1011.1
20260504223138 63 65 0.0 0.0 0.00 0.00 0.00 63 1011.6
20260504222636 64 65 0.0 0.0 0.00 0.00 0.00 63 1011.5
20260504222136 64 65 0.0 0.0 0.00 0.00 0.00 63 1011.5
20260504221636 64 65 0.0 0.0 0.00 0.00 0.00 61 1011.5
20260504221410 65 65 0.0 0.0 0.00 0.00 0.00 60 1011.5
20260504220635 65 65 0.0 0.0 0.00 0.00 0.00 60 1011.5
20260504220120 65 65 0.0 0.0 0.00 0.00 0.00 60 1011.1
20260504215623 65 65 0.0 0.0 0.00 0.00 0.00 59 1011.5
20260504215613 65 65 0.0 0.0 0.00 0.00 0.00 59 1011.5
20260504214608 65 65 0.0 0.0 0.00 0.00 0.00 58 1011.6
20260504214108 66 65 0.0 0.0 0.00 0.00 0.00 58 1011.6
20260504213609 66 65 0.0 1.0 0.00 0.00 0.00 58 1011.6
20260504213107 66 65 0.0 1.0 0.00 0.00 0.00 58 1011.5
20260504212542 66 65 0.0 0.0 0.00 0.00 0.00 58 1011.6
20260504212035 67 65 0.0 1.0 0.00 0.00 0.00 58 1011.7
20260504211817 67 65 0.0 2.0 0.00 0.00 0.00 57 1011.7
20260504211034 67 57 0.0 2.0 0.00 0.00 0.00 57 1011.8
20260504210822 67 64 0.0 2.0 0.00 0.00 0.00 57 1011.9
20260504210818 67 57 0.0 2.0 0.00 0.00 0.00 56 1011.9
20260504205516 67 87 0.0 1.0 0.00 0.00 0.00 56 1012.0
20260504205249 68 100 0.0 4.0 0.00 0.00 0.00 56 1011.9
20260504204510 68 100 0.0 4.0 0.00 0.00 0.00 56 1011.9
20260504204009 68 87 0.0 2.0 0.00 0.00 0.00 56 1012.0
20260504203445 68 75 0.0 1.0 0.00 0.00 0.00 56 1012.0
20260504202934 68 75 0.0 1.0 0.00 0.00 0.00 55 1011.9
20260504202437 69 75 1.0 3.0 0.00 0.00 0.00 55 1012.0
20260504202145 69 166 1.0 6.0 0.00 0.00 0.00 55 1012.0
20260504201653 69 135 0.0 6.0 0.00 0.00 0.00 55 1012.1
20260504200916 69 129 1.0 5.0 0.00 0.00 0.00 54 1012.2
20260504200417 69 93 1.0 5.0 0.00 0.00 0.00 54 1012.2
20260504195915 69 217 1.0 7.0 0.00 0.00 0.00 55 1012.2
20260504195408 70 189 0.0 7.0 0.00 0.00 0.00 52 1012.2
20260504194909 70 42 0.0 1.0 0.00 0.00 0.00 50 1011.7
20260504194409 70 42 0.0 1.0 0.00 0.00 0.00 50 1011.6
20260504193848 70 42 0.0 1.0 0.00 0.00 0.00 50 1011.5
20260504193337 70 42 1.0 4.0 0.00 0.00 0.00 50 1011.6
20260504192835 70 50 1.0 4.0 0.00 0.00 0.00 50 1011.7
20260504192607 71 354 0.0 3.0 0.00 0.00 0.00 50 1011.5
20260504192110 71 342 0.0 2.0 0.00 0.00 0.00 50 1011.5
20260504191336 71 347 1.0 4.0 0.00 0.00 0.00 50 1011.5
20260504190835 71 312 1.0 4.0 0.00 0.00 0.00 51 1011.6
20260504190826 72 321 1.0 3.0 0.00 0.00 0.00 51 1011.5
20260504185826 72 4 1.0 4.0 0.00 0.00 0.00 51 1011.5
20260504185316 72 12 1.0 4.0 0.00 0.00 0.00 49 1011.4
20260504184817 73 62 0.0 3.0 0.00 0.00 0.00 50 1011.4
20260504184310 73 67 0.0 2.0 0.00 0.00 0.00 49 1011.4
20260504183811 73 233 0.0 2.0 0.00 0.00 0.00 49 1011.4
20260504183310 74 233 0.0 3.0 0.00 0.00 0.00 52 1011.7
20260504182754 74 233 0.0 3.0 0.00 0.00 0.00 50 1011.6
20260504182254 75 86 1.0 4.0 0.00 0.00 0.00 48 1011.4
20260504181740 75 83 3.0 8.0 0.00 0.00 0.00 46 1011.2
20260504181239 75 4 3.0 8.0 0.00 0.00 0.00 44 1011.2
20260504180740 76 359 2.0 8.0 0.00 0.00 0.00 42 1011.2
20260504180239 76 16 1.0 8.0 0.00 0.00 0.00 39 1011.2
20260504175741 77 329 2.0 7.0 0.00 0.00 0.00 38 1011.2
20260504175240 77 346 2.0 7.0 0.00 0.00 0.00 38 1011.3
20260504174740 78 320 1.0 4.0 0.00 0.00 0.00 39 1011.4
20260504174234 78 331 1.0 4.0 0.00 0.00 0.00 38 1011.2
20260504173737 78 316 0.0 4.0 0.00 0.00 0.00 37 1011.1
20260504173236 78 320 0.0 2.0 0.00 0.00 0.00 37 1011.1
20260504172737 78 326 0.0 3.0 0.00 0.00 0.00 37 1011.1
20260504172236 79 296 0.0 3.0 0.00 0.00 0.00 36 1011.0
20260504171735 79 359 1.0 3.0 0.00 0.00 0.00 36 1011.0
20260504171227 79 4 1.0 4.0 0.00 0.00 0.00 36 1011.0
20260504170726 79 12 1.0 4.0 0.00 0.00 0.00 35 1011.7
20260504170217 80 4 1.0 4.0 0.00 0.00 0.00 36 1011.1
20260504160420 80 14 2.0 6.0 0.00 0.00 0.00 34 1011.2
20260504151138 80 77 0.0 3.0 0.00 0.00 0.00 34 1011.4
20260504150911 80 89 1.0 5.0 0.00 0.00 0.00 33 1011.5
20260504150139 80 26 2.0 5.0 0.00 0.00 0.00 33 1011.6
20260504141111 81 54 2.0 6.0 0.00 0.00 0.00 32 1012.2
20260504140548 82 41 2.0 6.0 0.00 0.00 0.00 32 1012.3
20260504130540 83 89 1.0 4.0 0.00 0.00 0.00 33 1013.2